Merida - Lic Manuel Crece, Mexico

9:47 AM EST on October 01, 2016 (GMT -0500)
Lic Manuel Crecencio Rejon

Weather History for MMMD - July, 2013

Change the Weather History Date:

Sunday, July 28, 2013

  Actual Average Record
Temperature  
Mean Temperature 86 °F -  
Max Temperature 97 °F 93 °F 102 °F (2015)
Min Temperature 74 °F 73 °F 71 °F (2003)
Cooling Degree Days 20    
Growing Degree Days 36 (Base 50)    
Moisture  
Dew Point 71 °F    
Average Humidity 68    
Maximum Humidity 94    
Minimum Humidity 36    
Precipitation  
Precipitation 0.00 in - - ()
Sea Level Pressure  
Sea Level Pressure 29.97 in    
Wind  
Wind Speed 7 mph ()    
Max Wind Speed 13 mph    
Max Gust Speed -    
Visibility 6.2 miles    
Events      
Averages and records for this station are not official NWS values.
T = Trace of Precipitation, MM = Missing Value Source: Averaged Metar Reports

Daily Weather History Graph

Daily Weather History Graph

Search for Another Location

Airport or City:

Trip Planner

Search our weather history database for the weather conditions in past years. The results will help you decide how hot, cold, wet, or windy it might be!

Date:

Astronomy

Jul. 28, 2013 Rise Set
Actual Time 6:31 AM CDT 7:38 PM CDT
Civil Twilight 6:07 AM CDT 8:02 PM CDT
Nautical Twilight 5:39 AM CDT 8:30 PM CDT
Astronomical Twilight 5:10 AM CDT 8:59 PM CDT
Moon No Moon Rise 12:14 PM CDT (7/28)
Length of Visible Light 13h 55m
Length of Day
13h 07m
Waning Gibbous, 60% of the Moon is Illuminated
Jul 28
Waning Gibbous
Jul 29
Last Quarter
Aug 6
New
Aug 14
First Quarter
Aug 20
Full

Hourly Weather History & Observations

Time (CDT) Temp. Heat Index Dew Point Humidity Pressure Visibility Wind Dir Wind Speed Gust Speed Precip Events Conditions
12:48 AM 77.0 °F - 71.6 °F 83% 29.99 in 7.0 mi East 11.5 mph - N/A   Clear
12:50 AM 78 °F - 75 °F 87% 29.99 in 3 mi ENE 4.5 mph - -   Scattered Clouds
1:45 AM 77.0 °F - 71.6 °F 83% 29.96 in 7.0 mi East 10.4 mph - N/A   Clear
2:51 AM 77.0 °F - 71.6 °F 83% 29.95 in 7.0 mi East 5.8 mph - N/A   Clear
3:47 AM 77.0 °F - 71.6 °F 83% 29.96 in 7.0 mi East 6.9 mph - N/A   Clear
3:50 AM 77 °F - 75 °F 90% 29.95 in 3 mi East 2.2 mph - -  
4:49 AM 75.2 °F - 71.6 °F 89% 29.94 in 7.0 mi East 9.2 mph - N/A   Clear
5:49 AM 73.4 °F - 71.6 °F 94% 29.94 in 6.0 mi East 6.9 mph - N/A   Clear
6:43 AM 73.4 °F - 71.6 °F 94% 29.97 in 5.0 mi East 5.8 mph - N/A   Partly Cloudy
6:50 AM 75 °F - 74 °F 94% 29.96 in 3 mi East 2.2 mph - -   Clear
7:47 AM 77.0 °F - 73.4 °F 89% 29.97 in 5.0 mi ESE 8.1 mph - N/A   Partly Cloudy
8:45 AM 80.6 °F 85.4 °F 73.4 °F 79% 29.99 in 6.0 mi East 10.4 mph - N/A   Scattered Clouds
9:42 AM 84.2 °F 90.9 °F 73.4 °F 70% 29.97 in 7.0 mi ESE 11.5 mph - N/A   Mostly Cloudy
9:50 AM 84 °F - 76 °F 72% 30.01 in 6 mi ESE 4.5 mph - -   Mostly Cloudy
10:49 AM 86.0 °F 90.4 °F 69.8 °F 58% 29.99 in 7.0 mi SE 9.2 mph - N/A   Mostly Cloudy
11:45 AM 87.8 °F 92.6 °F 69.8 °F 55% 29.98 in 7.0 mi East 11.5 mph - N/A   Scattered Clouds
12:40 PM 91.4 °F 95.4 °F 68.0 °F 46% 29.98 in 7.0 mi East 8.1 mph - N/A   Scattered Clouds
12:50 PM 92 °F - 74 °F 47% 29.98 in 6 mi SE 4.5 mph - -   Partly Cloudy
1:44 PM 91.4 °F 95.4 °F 68.0 °F 46% 29.96 in 7.0 mi East 12.7 mph - N/A   Scattered Clouds
2:41 PM 93.2 °F 96.2 °F 66.2 °F 41% 29.94 in 7.0 mi ESE 11.5 mph - N/A   Scattered Clouds
3:50 PM 95 °F - 72 °F 39% 29.94 in 6 mi ESE 4.5 mph - -   Mostly Cloudy
3:50 PM 95.0 °F 97.0 °F 64.4 °F 36% 29.94 in 7.0 mi ESE 12.7 mph - N/A   Mostly Cloudy
4:45 PM 93.2 °F 94.9 °F 64.4 °F 38% 29.92 in 7.0 mi ESE 12.7 mph - N/A   Scattered Clouds
5:50 PM 91.4 °F 93.2 °F 64.4 °F 41% 29.92 in 7.0 mi NE 9.2 mph - N/A   Partly Cloudy
6:48 PM 86.0 °F 91.8 °F 71.6 °F 62% 29.95 in 7.0 mi NNE 9.2 mph - N/A   Partly Cloudy
6:50 PM 88 °F - 76 °F 59% 29.95 in 6 mi NNE 8.9 mph - -   Scattered Clouds
7:49 PM 84.2 °F 89.6 °F 71.6 °F 66% 29.95 in 7.0 mi ENE 9.2 mph - N/A   Clear
8:45 PM 82.4 °F 87.2 °F 71.6 °F 70% 29.97 in 7.0 mi NE 10.4 mph - N/A   Clear
9:42 PM 82.4 °F 87.2 °F 71.6 °F 70% 29.99 in 7.0 mi ENE 6.9 mph - N/A   Clear
9:50 PM 82 °F - 72 °F 66% 30.00 in 3 mi ENE 6.7 mph - -   Scattered Clouds
10:44 PM 80.6 °F 85.4 °F 73.4 °F 79% 30.00 in 7.0 mi ENE 8.1 mph - N/A   Clear
11:44 PM 80.6 °F 85.4 °F 73.4 °F 79% 30.00 in 7.0 mi East 8.1 mph - N/A   Clear